Sunlight Mountain, CO

9:10 PM MST on February 21, 2018 (GMT -0700)
Sunlight Mountain

Weather History for K5SM - August, 2013

Change the Weather History Date:

Tuesday, August 6, 2013

  Actual Average (KRIL) Record (KRIL)
Temperature  
Mean Temperature 58 °F -  
Max Temperature 66 °F 89 °F 98 °F (2001)
Min Temperature 50 °F 51 °F 35 °F (1962)
Degree Days  
Heating Degree Days 7    
Growing Degree Days 8 (Base 50)    
Moisture  
Dew Point 43 °F    
Average Humidity 65    
Maximum Humidity 77    
Minimum Humidity 49    
Precipitation  
Precipitation 0.00 in - - ()
Sea Level Pressure  
Sea Level Pressure 30.53 in    
Wind  
Wind Speed 1 mph (NW)    
Max Wind Speed 10 mph    
Max Gust Speed 22 mph    
Visibility 10 miles    
Events Rain , Thunderstorm    
Averages and records for this station are not official NWS values.
T = Trace of Precipitation, MM = Missing Value Source: NWS Daily Summary

Daily Weather History Graph

Daily Weather History Graph

Search for Another Location

Airport or City:

Trip Planner

Search our weather history database for the weather conditions in past years. The results will help you decide how hot, cold, wet, or windy it might be!

Date:

Astronomy

Aug. 06, 2013 Rise Set
Actual Time 6:14 AM MDT 8:16 PM MDT
Civil Twilight 5:44 AM MDT 8:45 PM MDT
Nautical Twilight 5:08 AM MDT 9:21 PM MDT
Astronomical Twilight 4:29 AM MDT 10:00 PM MDT
Moon 6:07 AM MDT (8/6) 7:52 PM MDT (8/6)
Length of Visible Light 15h 00m
Length of Day
14h 01m
Waning Crescent, 0% of the Moon is Illuminated
Aug 6
Waning Crescent
Aug 6
New
Aug 14
First Quarter
Aug 20
Full
Aug 28
Last Quarter

Hourly Weather History & Observations

Time (MDT) Temp. Dew Point Humidity Pressure Visibility Wind Dir Wind Speed Gust Speed Precip Events Conditions
12:03 AM 50.0 °F 42.8 °F 76% 30.54 in 10.0 mi Calm Calm - N/A   Clear
12:23 AM 50.0 °F 42.8 °F 76% 30.54 in 10.0 mi Calm Calm - N/A   Clear
12:43 AM 51.8 °F 42.8 °F 71% 30.54 in 10.0 mi Calm Calm - N/A   Clear
1:03 AM 51.8 °F 42.8 °F 71% 30.53 in 10.0 mi Calm Calm - N/A   Mostly Cloudy
1:22 AM 51.8 °F 42.8 °F 71% 30.53 in 10.0 mi Calm Calm - N/A   Scattered Clouds
1:43 AM 51.8 °F 42.8 °F 71% 30.52 in 10.0 mi Calm Calm - N/A   Clear
2:03 AM 51.8 °F 42.8 °F 71% 30.52 in 10.0 mi Calm Calm - N/A   Clear
2:23 AM 51.8 °F 42.8 °F 71% 30.52 in 10.0 mi Calm Calm - N/A   Clear
2:43 AM 51.8 °F 42.8 °F 71% 30.52 in 10.0 mi Calm Calm - N/A   Clear
3:03 AM 51.8 °F 42.8 °F 71% 30.52 in 10.0 mi Calm Calm - N/A   Scattered Clouds
3:23 AM 51.8 °F 42.8 °F 71% 30.51 in 10.0 mi SW 3.5 mph - N/A   Mostly Cloudy
3:43 AM 51.8 °F 42.8 °F 71% 30.51 in 10.0 mi Calm Calm - N/A   Mostly Cloudy
4:02 AM 51.8 °F 42.8 °F 71% 30.50 in 10.0 mi Calm Calm - N/A   Mostly Cloudy
4:23 AM 51.8 °F 42.8 °F 71% 30.50 in 10.0 mi Calm Calm - N/A   Mostly Cloudy
4:43 AM 51.8 °F 42.8 °F 71% 30.50 in 10.0 mi Calm Calm - N/A   Scattered Clouds
5:03 AM 51.8 °F 42.8 °F 71% 30.50 in 10.0 mi Calm Calm - N/A   Clear
5:23 AM 51.8 °F 42.8 °F 71% 30.50 in 10.0 mi Calm Calm - N/A   Scattered Clouds
5:43 AM 51.8 °F 42.8 °F 71% 30.51 in 10.0 mi Calm Calm - N/A   Clear
6:03 AM 51.8 °F 42.8 °F 71% 30.51 in 10.0 mi Calm Calm - N/A   Scattered Clouds
6:23 AM 51.8 °F 42.8 °F 71% 30.51 in 10.0 mi Calm Calm - N/A   Scattered Clouds
6:42 AM 51.8 °F 42.8 °F 71% 30.51 in 10.0 mi Calm Calm - N/A   Scattered Clouds
7:03 AM 51.8 °F 42.8 °F 71% 30.52 in 10.0 mi Calm Calm - N/A   Clear
7:23 AM 53.6 °F 41.0 °F 62% 30.52 in 10.0 mi Calm Calm - N/A   Clear
7:43 AM 53.6 °F 42.8 °F 67% 30.52 in 10.0 mi Calm Calm - N/A   Clear
8:03 AM 55.4 °F 42.8 °F 63% 30.53 in 10.0 mi Calm Calm - N/A   Clear
8:23 AM 55.4 °F 42.8 °F 63% 30.53 in 10.0 mi Calm Calm - N/A   Clear
8:43 AM 57.2 °F 42.8 °F 59% 30.53 in 10.0 mi Calm Calm - N/A   Clear
9:03 AM 59.0 °F 44.6 °F 59% 30.54 in 10.0 mi Calm Calm - N/A   Clear
9:23 AM 59.0 °F 41.0 °F 51% 30.54 in 10.0 mi Calm Calm - N/A   Clear
9:43 AM 60.8 °F 42.8 °F 52% 30.54 in 10.0 mi Calm Calm - N/A   Clear
10:03 AM 60.8 °F 42.8 °F 52% 30.55 in 10.0 mi Calm Calm - N/A   Clear
10:23 AM 60.8 °F 42.8 °F 52% 30.55 in 10.0 mi Calm Calm - N/A   Clear
10:42 AM 60.8 °F 46.4 °F 59% 30.55 in 10.0 mi Calm Calm - N/A   Clear
11:03 AM 60.8 °F 46.4 °F 59% 30.55 in 10.0 mi Calm Calm - N/A   Clear
11:22 AM 60.8 °F 46.4 °F 59% 30.56 in 10.0 mi Calm Calm - N/A   Clear
11:43 AM 60.8 °F 46.4 °F 59% 30.55 in 10.0 mi Calm Calm - N/A   Clear
12:03 PM 60.8 °F 46.4 °F 59% 30.55 in 10.0 mi Calm Calm - N/A   Scattered Clouds
12:23 PM 62.6 °F 46.4 °F 55% 30.54 in 10.0 mi Calm Calm - N/A   Clear
12:43 PM 66.2 °F 46.4 °F 49% 30.54 in 10.0 mi SW 3.5 mph - N/A Thunderstorm Scattered Clouds
1:03 PM 60.8 °F 46.4 °F 59% 30.54 in 7.0 mi Calm Calm - N/A Rain , Thunderstorm Rain
1:23 PM 55.4 °F 48.2 °F 77% 30.55 in 10.0 mi WSW 3.5 mph - N/A   Overcast
1:43 PM 53.6 °F 39.2 °F 58% 30.54 in 10.0 mi WNW 10.4 mph 20.7 mph N/A Thunderstorm Thunderstorm
2:03 PM 50.0 °F 41.0 °F 71% 30.55 in 10.0 mi WNW 9.2 mph 21.9 mph N/A Rain , Thunderstorm Light Thunderstorms and Rain
2:23 PM 50.0 °F 41.0 °F 71% 30.55 in 10.0 mi NW 6.9 mph 20.7 mph N/A Rain , Thunderstorm Light Thunderstorms and Rain
2:42 PM 53.6 °F 39.2 °F 58% 30.55 in 10.0 mi WNW 6.9 mph - N/A Thunderstorm Overcast
3:03 PM 59.0 °F 41.0 °F 51% 30.55 in 10.0 mi WSW 4.6 mph - N/A   Scattered Clouds
3:22 PM 55.4 °F 41.0 °F 58% 30.56 in 10.0 mi NW 4.6 mph - N/A   Mostly Cloudy
3:42 PM 55.4 °F 39.2 °F 54% 30.56 in 10.0 mi Calm Calm - N/A   Light Drizzle
4:03 PM 55.4 °F 42.8 °F 63% 30.55 in 10.0 mi Calm Calm - N/A   Mostly Cloudy
4:22 PM 59.0 °F 44.6 °F 59% 30.55 in 10.0 mi Calm Calm - N/A   Scattered Clouds
4:43 PM 59.0 °F 42.8 °F 55% 30.54 in 10.0 mi Calm Calm - N/A   Scattered Clouds
5:03 PM 57.2 °F 42.8 °F 59% 30.54 in 10.0 mi Calm Calm - N/A   Mostly Cloudy
5:23 PM 57.2 °F 42.8 °F 59% 30.54 in 10.0 mi Calm Calm - N/A   Overcast
5:43 PM 55.4 °F 42.8 °F 63% 30.54 in 10.0 mi Calm Calm - N/A   Scattered Clouds
6:03 PM 53.6 °F 44.6 °F 72% 30.54 in 10.0 mi NE 3.5 mph - N/A   Mostly Cloudy
6:23 PM 53.6 °F 44.6 °F 72% 30.53 in 10.0 mi Calm Calm - N/A   Mostly Cloudy
6:43 PM 53.6 °F 42.8 °F 67% 30.53 in 10.0 mi Calm Calm - N/A   Mostly Cloudy
7:03 PM 53.6 °F 44.6 °F 72% 30.54 in 10.0 mi Calm Calm - N/A   Mostly Cloudy
7:23 PM 51.8 °F 44.6 °F 76% 30.54 in 10.0 mi NE 3.5 mph - N/A   Scattered Clouds
7:42 PM 51.8 °F 42.8 °F 71% 30.54 in 10.0 mi NE 3.5 mph - N/A   Mostly Cloudy
8:03 PM 50.0 °F 42.8 °F 76% 30.54 in 10.0 mi ENE 3.5 mph - N/A   Overcast
8:23 PM 50.0 °F 42.8 °F 76% 30.53 in 10.0 mi East 3.5 mph - N/A   Overcast
8:43 PM 50.0 °F 42.8 °F 76% 30.50 in 10.0 mi SE 6.9 mph - N/A   Overcast
9:03 PM 51.8 °F 42.8 °F 71% 30.51 in 10.0 mi SE 5.8 mph - N/A   Overcast
9:23 PM 50.0 °F 42.8 °F 76% 30.51 in 10.0 mi SE 6.9 mph - N/A   Scattered Clouds
9:43 PM 50.0 °F 41.0 °F 71% 30.53 in 10.0 mi Calm Calm - N/A   Clear
10:03 PM 50.0 °F 41.0 °F 71% 30.52 in 10.0 mi Calm Calm - N/A   Clear
10:23 PM 51.8 °F 41.0 °F 67% 30.51 in 10.0 mi Calm Calm - N/A   Scattered Clouds
10:43 PM 51.8 °F 39.2 °F 62% 30.51 in 10.0 mi Calm Calm - N/A   Mostly Cloudy
11:03 PM 51.8 °F 39.2 °F 62% 30.51 in 10.0 mi Calm Calm - N/A   Clear
11:23 PM 51.8 °F 35.6 °F 54% 30.51 in 10.0 mi Calm Calm - N/A   Clear
11:43 PM 51.8 °F 35.6 °F 54% 30.51 in 10.0 mi Calm Calm - N/A   Clear